Location: El Atico
(3.0014°N, 75.4378°W)
Time: 12:48:34
(UTC+00:00)

DELTA 2 R/B (1) - Pass Details

Date: 09 December 2025
Orbit: 787 x 800 km, 39.6° (Epoch: 24 January)

Event Time Altitude Azimuth Distance (km) Brightness Sun altitude
Rises 23:04:46 0° 306° (NW) 3,278 7.2 -3.5°
Reaches altitude 10° 23:07:16 10° 302° (WNW) 2,348 6.6 -4.1°
Maximum altitude 23:12:44 62° 222° (SW) 884 4.2 -5.4°
Drops below altitude 10° 23:18:11 10° 142° (SE) 2,343 5.9 -6.6°
Sets 23:20:42 0° 139° (SE) 3,271 6.6 -7.2°
